DW1304 Shelton CT US current weather conditions

sailwx.info

Wind from 229

Air temperature 28.9° C
Dewpoint 23.3° C

Last reported at 2020-Aug-12 23:00 UTC.
Time now 2020-Aug-12 23:59 UTC

Location: N 41°18' W 073°09'.
View on Google Maps.

See reports from other nearby stations

  
Tides and Currents Weather Stations Pressure Air Temp Water Temp Dewpoint Dewpoint Depression Visibility Wind Speed Wind Dir Waves Ship Positions
date/time (UTC)wind fromknots sea level pressurealtimeterstation pressurevisibilityair tempwater tempwave heightnotes
2020-Aug-12 23:00 229 28.9
2020-Aug-12 22:45 229 28.9
2020-Aug-12 22:30 180 28.9
2020-Aug-12 22:15 184 29.4
2020-Aug-12 22:00 194 29.4
2020-Aug-12 21:45 169 29.4
2020-Aug-12 21:30 173 29.4
2020-Aug-12 21:15 005 28.9
2020-Aug-12 21:00 024 28.9
2020-Aug-12 20:45 025 29.4
2020-Aug-12 20:30 164 29.4
2020-Aug-12 20:15 196 29.4
2020-Aug-12 20:00 213 30.0
2020-Aug-12 19:45 104 30.0
2020-Aug-12 19:30 104 30.0
2020-Aug-12 19:15 068 0 gusting 2 30.6
2020-Aug-12 19:00 091 31.1
2020-Aug-12 18:46 028 1 gusting 5 31.1
2020-Aug-12 18:33 094 30.6
2020-Aug-12 18:18 038 30.6
2020-Aug-12 18:02 180 30.6
2020-Aug-12 17:47 146 31.7
2020-Aug-12 17:31 294 31.1
2020-Aug-12 17:17 047 0 gusting 2 30.0
2020-Aug-12 17:01 355 30.6
2020-Aug-12 16:46 034 31.1
2020-Aug-12 16:32 035 0 gusting 5 30.0
2020-Aug-12 16:16 051 30.0
2020-Aug-12 16:01 036 0 gusting 5 29.4
2020-Aug-12 15:46 038 0 gusting 3 29.4
2020-Aug-12 15:31 047 1 gusting 5 28.9
2020-Aug-12 15:15 074 28.9
2020-Aug-12 15:01 267 0 gusting 3 28.3
2020-Aug-12 14:46 119 2 gusting 6 28.3
2020-Aug-12 14:31 051 2 gusting 6 27.8
2020-Aug-12 14:15 342 27.8
2020-Aug-12 14:01 039 0 gusting 4 27.2
2020-Aug-12 13:46 339 0 gusting 5 27.2
2020-Aug-12 13:30 084 2 gusting 6 27.2
2020-Aug-12 13:15 005 26.7
2020-Aug-12 13:00 340 26.1
2020-Aug-12 12:45 078 25.0
2020-Aug-12 12:30 045 25.0
2020-Aug-12 12:15 031 23.3
2020-Aug-12 12:00 028 23.3
2020-Aug-12 11:45 038 23.3
2020-Aug-12 11:30 046 23.3
2020-Aug-12 11:17 074 23.3
2020-Aug-12 11:02 074 23.3
2020-Aug-12 10:47 074 23.3
2020-Aug-12 10:31 224 23.3
2020-Aug-12 10:16 224 23.3
2020-Aug-12 10:02 224 23.3
2020-Aug-12 09:46 224 23.3
2020-Aug-12 09:31 224 23.3
2020-Aug-12 09:01 224 23.9
2020-Aug-12 08:45 224 23.9
2020-Aug-12 08:30 254 23.9
2020-Aug-12 08:16 255 23.9
2020-Aug-12 08:00 255 23.9
2020-Aug-12 07:46 255 23.9
2020-Aug-12 07:31 255 23.9
2020-Aug-12 07:17 255 23.9
2020-Aug-12 07:00 255 23.9
2020-Aug-12 06:46 255 23.9
2020-Aug-12 06:31 255 24.4
2020-Aug-12 06:15 255 24.4
2020-Aug-12 06:02 255 24.4
2020-Aug-12 05:46 255 24.4
2020-Aug-12 05:31 265 24.4
2020-Aug-12 05:16 326 24.4
2020-Aug-12 05:00 182 24.4
2020-Aug-12 04:45 038 24.4
2020-Aug-12 04:31 041 24.4
2020-Aug-12 04:16 010 24.4
2020-Aug-12 04:01 178 24.4
2020-Aug-12 03:46 256 24.4
2020-Aug-12 03:30 177 24.4
2020-Aug-12 03:15 325 24.4
2020-Aug-12 03:01 178 24.4
2020-Aug-12 02:45 186 24.4
2020-Aug-12 02:31 229 24.4
2020-Aug-12 02:15 128 0 gusting 4 25.0
2020-Aug-12 02:01 119 25.0
2020-Aug-12 01:45 145 25.0
2020-Aug-12 01:30 139 25.0
2020-Aug-12 01:15 138 25.0
2020-Aug-12 01:00 087 25.0
2020-Aug-12 00:45 179 25.6
2020-Aug-12 00:30 179 25.6
2020-Aug-12 00:15 176 25.6
2020-Aug-12 00:00 168 26.1
2020-Aug-11 23:45 201 26.1
2020-Aug-11 23:30 209 0 gusting 2 26.7
2020-Aug-11 23:15 230 26.7
2020-Aug-11 23:00 199 26.7
2020-Aug-11 22:45 197 27.2
2020-Aug-11 22:30 196 27.2
2020-Aug-11 22:15 099 0 gusting 2 27.2
2020-Aug-11 22:00 233 27.2
2020-Aug-11 21:45 181 27.2
2020-Aug-11 21:30 153 27.8
2020-Aug-11 21:15 291 0 gusting 3 27.8
2020-Aug-11 21:00 096 1 gusting 4 27.8
2020-Aug-11 20:45 249 0 gusting 4 27.8
2020-Aug-11 20:30 140 0 gusting 6 27.8
2020-Aug-11 20:15 178 1 gusting 5 28.3
2020-Aug-11 20:00 170 0 gusting 5 28.9
2020-Aug-11 19:46 138 1 gusting 4 28.9
2020-Aug-11 19:31 162 1 gusting 6 29.4
2020-Aug-11 19:18 184 0 gusting 2 29.4
2020-Aug-11 19:02 219 0 gusting 5 29.4
2020-Aug-11 18:47 178 0 gusting 6 30.0
2020-Aug-11 18:32 248 0 gusting 3 30.0
2020-Aug-11 18:18 227 0 gusting 3 30.0
2020-Aug-11 18:02 271 1 gusting 4 29.4
2020-Aug-11 17:46 232 1 gusting 5 29.4
2020-Aug-11 17:31 166 0 gusting 5 29.4
2020-Aug-11 17:16 157 29.4
2020-Aug-11 17:01 173 1 gusting 4 30.0
2020-Aug-11 16:46 168 0 gusting 4 29.4
2020-Aug-11 16:31 227 1 gusting 6 30.0
2020-Aug-11 16:15 243 0 gusting 2 29.4
2020-Aug-11 16:01 190 0 gusting 5 29.4
2020-Aug-11 15:45 254 0 gusting 4 30.0
2020-Aug-11 15:31 067 0 gusting 2 29.4
2020-Aug-11 15:16 175 0 gusting 3 29.4
2020-Aug-11 15:01 117 1 gusting 3 29.4
2020-Aug-11 14:46 167 0 gusting 2 29.4
2020-Aug-11 14:31 150 28.9
2020-Aug-11 14:15 109 28.3
2020-Aug-11 14:00 089 27.8
2020-Aug-11 13:45 088 27.2
2020-Aug-11 13:30 091 27.2
2020-Aug-11 13:16 145 26.7
2020-Aug-11 13:01 146 26.7
2020-Aug-11 12:45 171 26.1
2020-Aug-11 12:15 171 24.4
2020-Aug-11 12:01 171 23.9
2020-Aug-11 11:46 171 23.3
2020-Aug-11 11:31 171 22.8
2020-Aug-11 11:16 171 22.2
2020-Aug-11 11:01 171 21.7
2020-Aug-11 10:46 171 21.7
2020-Aug-11 10:31 171 21.7
2020-Aug-11 10:16 171 21.7
2020-Aug-11 10:01 171 21.7
2020-Aug-11 09:46 171 21.7
2020-Aug-11 09:30 171 21.7
2020-Aug-11 09:15 171 22.2
2020-Aug-11 09:01 171 22.2
2020-Aug-11 08:45 171 22.2
2020-Aug-11 08:31 171 22.2
2020-Aug-11 08:15 171 22.2
2020-Aug-11 08:00 171 22.2
2020-Aug-11 07:45 171 22.2
2020-Aug-11 07:30 171 22.8
2020-Aug-11 07:15 171 22.8
2020-Aug-11 07:00 171 22.8
2020-Aug-11 06:46 171 22.8
2020-Aug-11 06:31 171 22.8
2020-Aug-11 06:15 171 22.8
2020-Aug-11 06:00 171 22.8
2020-Aug-11 05:46 171 22.8
2020-Aug-11 05:30 171 22.8
2020-Aug-11 05:15 171 22.8
2020-Aug-11 05:00 171 22.8
2020-Aug-11 04:45 171 22.8
2020-Aug-11 04:30 171 23.3
2020-Aug-11 04:15 171 23.3
2020-Aug-11 04:00 171 23.3
2020-Aug-11 03:45 171 23.3
2020-Aug-11 03:30 171 23.9
2020-Aug-11 03:15 171 23.9
2020-Aug-11 03:00 171 24.4
2020-Aug-11 02:45 171 24.4
2020-Aug-11 02:30 171 25.0
2020-Aug-11 02:16 171 25.0
2020-Aug-11 02:01 171 25.6
2020-Aug-11 01:47 171 25.6
2020-Aug-11 01:32 171 26.1
2020-Aug-11 01:17 171 26.1
2020-Aug-11 01:02 171 0 gusting 3 26.1
2020-Aug-11 00:47 343 26.7
2020-Aug-11 00:31 343 27.2
2020-Aug-11 00:17 343 27.2
2020-Aug-11 00:02 343 27.8
2020-Aug-10 23:47 198 27.8
2020-Aug-10 23:31 198 28.3
2020-Aug-10 23:16 104 28.3
2020-Aug-10 23:01 360 28.9